[[{"header":{"parameterUnit":"m.s-1","parameterCategory":1,"la1":30.2991,"la2":30.254,"lo1":-89.0895,"lo2":-89.0444,"dy":0.0017,"dx":0.0017,"nx":28,"ny":28,"refTime":"2025-01-03T03:00:00:Z","depth":0,"parameterNumber":2,"parameterNumberName":"U-component_of_WINDS"},"data":[0,0,0,0,0,0,0,0,0,0,0,0,0,0,0,0,0,0,0,0,0,0,0,0,0,0,0,0,0,0,0,0,0,0,0,0,0,0,0,0,0,0,0,0,0,0,0,0,0,0,0,0,0,0,0,0,0,0,-2.51,-2.51,0,-2.5113,-2.5113,-2.5114,-2.5053,-2.5051,-2.5049,-2.5047,-2.5061,-2.5063,-2.5065,0,0,0,0,0,0,0,0,0,0,0,0,0,-2.5022,-2.5024,-2.51,-2.51,-2.5101,-2.5113,-2.5113,-2.5114,-2.5053,-2.5051,-2.5049,-2.5046,-2.506,-2.5063,-2.5065,0,0,0,0,0,0,0,0,0,0,0,0,0,-2.5048,-2.5024,-2.51,-2.5072,-2.5069,-2.5113,-2.5113,-2.5114,-2.5053,-2.5051,-2.5048,-2.5045,-2.5059,-2.5062,-2.5065,-2.5137,0,0,-2.5075,-2.5076,0,0,0,0,0,0,0,0,-2.5046,-2.5051,-2.5076,-2.5074,-2.5071,-2.5079,-2.5091,-2.5122,-2.5054,-2.5059,-2.5047,-2.5044,-2.5069,-2.5071,-2.5079,-2.5138,-2.5139,-2.5075,-2.5077,-2.5078,-2.5079,0,0,0,0,0,0,0,-2.5045,-2.505,-2.5105,-2.5076,-2.5073,-2.5058,-2.5059,-2.5096,-2.5079,-2.5059,-2.5054,-2.5057,-2.5067,-2.5077,-2.5079,-2.5139,-2.5075,-2.5078,-2.5079,-2.5081,-2.5255,-2.5257,0,0,0,0,0,0,-2.5047,-2.5049,-2.5105,-2.5106,-2.5052,-2.5062,-2.5062,-2.5079,-2.5078,-2.5076,-2.5059,-2.5054,-2.5073,-2.5076,-2.5079,-2.5161,-2.5078,-2.5081,-2.5083,-2.5252,-2.5255,-2.5258,0,0,0,0,0,0,-2.5045,-2.5052,-2.5104,-2.5076,-2.5081,-2.5066,-2.5085,-2.5081,-2.509,-2.5079,-2.5075,-2.5072,-2.5071,-2.5075,-2.5123,-2.5161,-2.5082,-2.5085,-2.5249,-2.5253,-2.5257,-2.5328,0,0,0,0,0,0,-2.5043,-2.5052,-2.508,-2.5077,-2.5083,-2.5148,-2.5087,-2.5083,-2.5095,-2.5089,-2.509,-2.5087,-2.5069,-2.5119,-2.5126,-2.5164,-2.5087,-2.5245,-2.5251,-2.5256,-2.5322,-2.5334,-2.5344,0,0,0,0,0,-2.5041,-2.51,-2.5081,-2.5088,-2.5117,-2.515,-2.5154,-2.5132,-2.5099,-2.5125,-2.5118,-2.5087,-2.5156,-2.5124,-2.5132,-2.5171,-2.5242,-2.5249,-2.5255,-2.5317,-2.5331,-2.5344,0,0,0,0,0,0,-2.5108,-2.5099,-2.5078,-2.5138,-2.5146,-2.514,-2.5173,-2.5148,-2.5165,-2.5158,-2.513,-2.5131,-2.5183,-2.5182,-2.5146,-2.524,-2.5194,-2.5202,-2.5238,-2.5252,-2.5263,-2.5261,-2.509,0,0,0,0,0,-2.5129,-2.5157,-2.5148,-2.5202,-2.5206,-2.519,-2.5203,-2.5185,-2.5192,-2.5194,-2.519,-2.5198,-2.5221,-2.5237,-2.5257,-2.5322,-2.532,-2.5353,-2.5364,-2.5373,-2.538,-2.5412,-2.5426,-2.5279,-2.5279,-2.5279,0,0,-2.5174,-2.5173,-2.5192,-2.5215,-2.5218,-2.5247,-2.5192,-2.5226,-2.5246,-2.5199,-2.5243,-2.5241,-2.5247,-2.5303,-2.5328,-2.5304,-2.542,-2.5381,-2.5389,-2.539,-2.542,-2.5434,-2.5446,-2.5283,-2.5283,-2.5282,0,0,-2.527,-2.5273,-2.5317,-2.5321,-2.5327,-2.5315,-2.5326,-2.5324,-2.532,-2.5364,-2.5329,-2.5353,-2.5394,-2.5399,-2.5407,-2.5505,-2.5476,-2.5513,-2.557,-2.5601,-2.5613,-2.5623,-2.5655,-2.5667,-2.552,-2.552,-2.552,0,-2.5326,-2.5367,-2.5343,-2.5378,-2.5388,-2.5347,-2.539,-2.5396,-2.5408,-2.5416,-2.539,-2.5439,-2.5441,-2.5496,-2.5519,-2.5528,-2.5538,-2.5511,-2.5613,-2.5623,-2.5632,-2.5662,-2.5675,-2.5524,-2.5524,-2.5523,-2.5523,0,-2.5434,-2.5463,-2.5498,-2.551,-2.5525,-2.5564,-2.5545,-2.5562,-2.5543,-2.5534,-2.5578,-2.5579,-2.5598,-2.561,-2.5592,-2.5663,-2.5647,-2.5618,-2.5571,-2.5651,-2.5679,-2.569,-2.553,-2.5529,-2.5527,-2.5526,0,0,-2.5572,-2.5569,-2.5582,-2.5586,-2.5589,-2.5611,-2.5648,-2.5666,-2.5681,-2.5691,-2.572,-2.5755,-2.5727,-2.5736,-2.5719,-2.5747,-2.5821,-2.5713,-2.5713,-2.5731,-2.5896,-2.5916,-2.593,-2.5803,-2.5805,-2.5807,-2.5894,0,-2.5664,-2.5726,-2.5705,-2.5768,-2.5794,-2.5755,-2.5786,-2.5791,-2.5784,-2.5805,-2.5796,-2.5821,-2.5783,-2.5788,-2.5814,-2.5806,-2.5853,-2.58,-2.5828,-2.583,-2.5825,-2.5945,-2.5968,-2.605,-2.5906,-2.5907,-2.5909,0,-2.578,-2.5793,-2.5859,-2.5855,-2.5865,-2.5894,-2.5908,-2.5929,-2.5933,-2.5926,-2.5936,-2.5912,-2.5947,-2.5901,-2.5948,-2.5913,-2.5923,-2.5921,-2.5924,-2.5924,-2.5872,-2.5946,-2.6076,-2.6088,-2.5926,-2.5925,-2.5924,0,-2.5871,-2.5906,-2.5948,-2.5953,-2.5951,-2.5972,-2.5972,-2.5974,-2.5986,-2.5998,-2.6005,-2.6022,-2.6031,-2.6045,-2.6026,-2.5994,-2.6075,-2.6028,-2.6068,-2.6069,-2.6085,-2.6084,-2.6216,-2.6096,-2.6096,-2.6096,-2.6096,0,-2.5975,-2.6016,-2.5989,-2.6015,-2.6059,-2.6034,-2.6079,-2.6075,-2.6077,-2.6101,-2.6069,-2.6093,-2.6067,-2.6088,-2.6074,-2.6114,-2.6119,-2.6113,-2.6108,-2.6114,-2.6115,-2.6119,-2.6112,-2.6099,-2.6098,-2.6098,-2.6097,0,-2.6083,-2.6067,-2.6111,-2.6105,-2.6104,-2.6137,-2.6131,-2.6155,-2.6145,-2.6176,-2.6182,-2.6167,-2.6189,-2.6172,-2.6195,-2.6186,-2.6238,-2.6226,-2.6236,-2.6232,-2.6272,-2.6267,-2.641,-2.6426,-2.6298,-2.6299,-2.63,0,-2.6149,-2.6179,-2.6176,-2.619,-2.6191,-2.6214,-2.6226,-2.6202,-2.6215,-2.6222,-2.6245,-2.6265,-2.6279,-2.6317,-2.6308,-2.6325,-2.6312,-2.6361,-2.6315,-2.6319,-2.631,-2.6307,-2.6309,-2.637,-2.6371,-2.6372,-2.6374,0,-2.6267,-2.6258,-2.6275,-2.6289,-2.6304,-2.6314,-2.6322,-2.6335,-2.6311,-2.6328,-2.635,-2.6361,-2.6384,-2.6404,-2.6417,-2.6417,-2.6391,-2.6389,-2.6398,-2.6404,-2.6407,-2.6403,-2.6259,-2.6385,-2.6384,-2.6383,-2.6382,-2.6382,-2.6355,-2.6379,-2.638,-2.64,-2.6403,-2.6411,-2.6432,-2.6425,-2.6443,-2.6459,-2.6444,-2.6471,-2.6473,-2.6489,-2.6492,-2.6512,-2.6492,-2.6506,-2.651,-2.6513,-2.6517,-2.6406,-2.6515,-2.6514,-2.6514,-2.6514,-2.6513,0,-2.6469,-2.6467,-2.6486,-2.6497,-2.6513,-2.6487,-2.6494,-2.6509,-2.6533,-2.6537,-2.6552,-2.6577,-2.6595,-2.6588,-2.6604,-2.6621,-2.661,-2.6626,-2.6623,-2.6623,-2.6536,-2.6525,-2.6635,-2.6635,-2.6635,-2.6635,-2.6635,-2.6635,-2.653,-2.6569,-2.6559,-2.6599,-2.6597,-2.6622,-2.6628,-2.6635,-2.6638,-2.6667,-2.6682,-2.6677,-2.6676,-2.6691,-2.6707,-2.6704,-2.6711,-2.6731,-2.6724,-2.6642,-2.663,-2.6618,-2.6607,-2.6734,-2.6734,-2.6809,-2.681,-2.681]},{"header":{"parameterUnit":"m.s-1","parameterCategory":1,"la1":30.2991,"la2":30.254,"lo1":-89.0895,"lo2":-89.0444,"dy":0.0017,"dx":0.0017,"nx":28,"ny":28,"refTime":"2025-01-03T03:00:00:Z","depth":0,"parameterNumber":3,"parameterNumberName":"V-component_of_WINDS"},"data":[0,0,0,0,0,0,0,0,0,0,0,0,0,0,0,0,0,0,0,0,0,0,0,0,0,0,0,0,0,0,0,0,0,0,0,0,0,0,0,0,0,0,0,0,0,0,0,0,0,0,0,0,0,0,0,0,0,0,1.3085,1.3086,0,1.3117,1.3118,1.3118,1.3073,1.3071,1.307,1.3068,1.3097,1.31,1.3102,0,0,0,0,0,0,0,0,0,0,0,0,0,1.2982,1.2984,1.3085,1.3086,1.3086,1.3117,1.3118,1.3118,1.3073,1.3071,1.3069,1.3067,1.3097,1.3099,1.3102,0,0,0,0,0,0,0,0,0,0,0,0,0,1.3021,1.2985,1.3085,1.3067,1.3066,1.3117,1.3118,1.3118,1.3074,1.3071,1.3069,1.3067,1.3096,1.3099,1.3102,1.3171,0,0,1.3113,1.3114,0,0,0,0,0,0,0,0,1.3019,1.3025,1.307,1.3069,1.3067,1.3089,1.3092,1.3136,1.3074,1.3071,1.3068,1.3065,1.3096,1.3099,1.3111,1.3172,1.3174,1.3113,1.3115,1.3117,1.3117,0,0,0,0,0,0,0,1.3017,1.3024,1.3098,1.307,1.3069,1.3057,1.306,1.31,1.3096,1.3071,1.3068,1.3072,1.3095,1.3107,1.3111,1.3174,1.3113,1.3116,1.3118,1.3119,1.3295,1.3298,0,0,0,0,0,0,1.3016,1.3022,1.3097,1.3099,1.3037,1.3061,1.3064,1.3084,1.3096,1.3095,1.3074,1.307,1.3103,1.3107,1.3112,1.3194,1.3117,1.312,1.3122,1.3293,1.3296,1.3299,0,0,0,0,0,0,1.3014,1.3024,1.3095,1.3059,1.3068,1.3065,1.3088,1.3086,1.3098,1.3098,1.3097,1.3088,1.3101,1.3107,1.3157,1.3194,1.3121,1.3124,1.329,1.3294,1.3297,1.3359,0,0,0,0,0,0,1.3012,1.3023,1.305,1.306,1.307,1.3142,1.309,1.3088,1.3105,1.31,1.3111,1.311,1.31,1.3152,1.3161,1.3198,1.3127,1.3286,1.3291,1.3296,1.3353,1.3364,1.3373,0,0,0,0,0,1.3008,1.3065,1.3051,1.3061,1.3103,1.3144,1.3149,1.3137,1.3108,1.3135,1.3135,1.311,1.3189,1.3158,1.3167,1.3205,1.3284,1.329,1.3296,1.3349,1.3362,1.3373,0,0,0,0,0,0,1.3057,1.3066,1.3051,1.3113,1.3128,1.3136,1.3169,1.3151,1.3173,1.3167,1.315,1.3153,1.3207,1.3211,1.3176,1.3273,1.3232,1.324,1.3269,1.3281,1.3291,1.3289,1.313,0,0,0,0,0,1.3075,1.3108,1.3114,1.3168,1.3176,1.3172,1.3189,1.3178,1.3192,1.3198,1.3202,1.3216,1.3244,1.3263,1.3288,1.3354,1.3356,1.3384,1.3395,1.3403,1.341,1.3446,1.3459,1.3318,1.3318,1.3318,0,0,1.3112,1.3121,1.3143,1.3178,1.3188,1.3222,1.3177,1.3215,1.324,1.3203,1.3252,1.3255,1.327,1.3328,1.3354,1.3333,1.345,1.341,1.3417,1.342,1.3453,1.3467,1.3478,1.3322,1.3322,1.3321,0,0,1.3198,1.3208,1.3255,1.3267,1.3284,1.3281,1.3292,1.3303,1.3305,1.3354,1.3328,1.3356,1.3405,1.3417,1.3429,1.3521,1.3499,1.353,1.3583,1.3618,1.3629,1.3639,1.3672,1.3684,1.3537,1.3537,1.3537,0,1.3242,1.3293,1.3281,1.3321,1.3337,1.3308,1.3355,1.3367,1.3391,1.3402,1.3379,1.344,1.3448,1.3509,1.3532,1.3543,1.3555,1.3528,1.3629,1.3638,1.3647,1.3679,1.3692,1.3541,1.354,1.354,1.354,0,1.3347,1.3383,1.3418,1.3445,1.3465,1.3508,1.3502,1.3523,1.3511,1.3511,1.3561,1.3569,1.3597,1.361,1.3598,1.367,1.3657,1.3631,1.3589,1.3664,1.3694,1.3706,1.3546,1.3545,1.3544,1.3543,0,0,1.3463,1.3484,1.3497,1.3509,1.3527,1.3554,1.3596,1.3625,1.3644,1.3661,1.3696,1.3739,1.3716,1.373,1.3719,1.375,1.3823,1.372,1.372,1.374,1.3905,1.3924,1.3939,1.3809,1.3811,1.3813,1.3904,0,1.3549,1.3624,1.3615,1.3686,1.3719,1.3693,1.3729,1.3744,1.3744,1.3772,1.3772,1.3803,1.377,1.3778,1.3808,1.3808,1.3856,1.3802,1.3841,1.3843,1.3839,1.3954,1.3975,1.4059,1.3915,1.3917,1.3918,0,1.366,1.3684,1.376,1.3774,1.3787,1.3821,1.3847,1.3874,1.389,1.3888,1.3905,1.3889,1.393,1.3888,1.3945,1.3908,1.3924,1.3927,1.3929,1.3933,1.3885,1.3961,1.4086,1.4099,1.3936,1.3935,1.3934,0,1.3739,1.379,1.3842,1.3853,1.387,1.3894,1.3902,1.3916,1.3934,1.3957,1.3968,1.3995,1.4009,1.403,1.4021,1.3991,1.4081,1.4037,1.408,1.4081,1.41,1.4099,1.423,1.411,1.4109,1.4109,1.4109,0,1.3836,1.3884,1.3878,1.391,1.3962,1.395,1.4002,1.4006,1.4019,1.4051,1.4028,1.4059,1.4045,1.4074,1.4068,1.4117,1.4123,1.4123,1.412,1.4125,1.4125,1.4135,1.4129,1.4113,1.4112,1.4111,1.4111,0,1.3933,1.3931,1.3986,1.3999,1.4003,1.4041,1.4051,1.4081,1.408,1.4121,1.413,1.4128,1.4162,1.4155,1.4191,1.4187,1.4249,1.4239,1.4244,1.4242,1.4286,1.4282,1.4428,1.4447,1.4314,1.4315,1.4316,0,1.3996,1.4032,1.4049,1.407,1.408,1.4114,1.4133,1.4123,1.4143,1.4165,1.4193,1.4224,1.4249,1.4304,1.4305,1.4333,1.4324,1.4373,1.4328,1.4332,1.4326,1.4324,1.4328,1.4382,1.4384,1.4385,1.4386,0,1.4107,1.4105,1.4135,1.4164,1.4188,1.4211,1.4231,1.4248,1.424,1.4265,1.4299,1.4319,1.4357,1.4389,1.4415,1.4422,1.4403,1.4401,1.4412,1.4417,1.4419,1.442,1.4269,1.4397,1.4396,1.4395,1.4395,1.4394,1.4189,1.4221,1.4239,1.4272,1.4287,1.4307,1.4336,1.434,1.4369,1.4401,1.4393,1.4432,1.4448,1.4481,1.4492,1.4522,1.4504,1.452,1.4525,1.4529,1.4535,1.4415,1.4527,1.4526,1.4526,1.4526,1.4526,0,1.4301,1.4312,1.4343,1.4373,1.44,1.4381,1.4402,1.4425,1.4461,1.4478,1.4504,1.4544,1.4576,1.458,1.461,1.4633,1.4625,1.4642,1.464,1.4642,1.4549,1.4537,1.4648,1.4648,1.4648,1.4648,1.4648,1.4648,1.4362,1.4415,1.4415,1.4474,1.4484,1.4524,1.4538,1.4556,1.457,1.4617,1.4644,1.4647,1.4659,1.469,1.4718,1.4718,1.473,1.475,1.4747,1.4661,1.4648,1.4637,1.4625,1.4753,1.4753,1.4838,1.4838,1.4839]}]]